EHI
0 0 0 0 0 0 0 0 0 0 0 0 0 0 0 0 0 0 0 0 0 0 0 0 0 0 0 0 0 0 0 0 0 0 0 0 0 0 0 0 0 0 0
0 0 0 0 0 0 0 0 0 0 0 0 0 0 0 0 0 0 0 0 0 0 0 0 0 0 0 0 0 0 0 0 0 0 0 0 0 0 0 0 0 0 0
0 0 0 0 0 0 0 0 0 0 0 0 0 0 0 0 0 0 0 0 0 0 0 0 0 0 0 0 0 0 0 0 0 0 0 0 0 0 0 0 0 0 0
0 0 0 0 0 0 0 0 0 0 0 0 0 0 0 0 0 0 0 0 0 0 0 0 0 0 0 0 0 0 0 0 0 0 0 0 0 0 0 0 0 0 0
0 0 0 0 0 0 0 0 0 0 0 0 0 0 0 0 0 0 0 0 0 0 0 0 0 0 0 0 1 1 0 0 0 0 0 0 0 0 0 0 0 0 1
0 0 0 0 0 0 0 0 0 0 0 0 0 0 0 0 0 0 0 0 0 0 0 0 0 0 0 0 1 1 0 0 0 0 0 1 1 0 0 1 1 2 2
0 0 0 0 0 0 0 0 0 0 0 0 0 0 0 0 0 0 0 0 0 0 0 0 0 0 0 0 1 1 0 0 0 0 0 1 1 0 1 2 3 3 3
0 0 0 0 0 0 0 0 0 0 0 0 0 0 0 0 0 0 0 0 0 0 0 0 0 0 0 0 0 0 0 0 0 0 0 1 1 0 1 2 3 3 2
0 0 0 0 0 0 0 0 0 0 0 0 0 0 0 0 0 0 0 0 0 0 0 0 0 0 0 0 0 0 0 0 0 0 0 0 0 0 0 1 2 1 0
0 0 0 0 0 0 0 0 0 0 0 0 0 0 0 0 0 0 0 0 0 0 0 0 0 0 0 0 0 0 0 0 0 0 0 0 0 0 0 0 0 0 0
0 0 0 0 0 0 0 0 0 0 0 0 0 0 0 0 0 0 0 0 0 0 0 0 0 0 0 0 0 0 0 0 0 0 0 0 0 0 0 0 0 0 0
0 0 0 0 0 0 0 0 0 0 0 0 0 0 0 0 0 0 0 0 0 0 0 0 0 0 0 0 0 0 0 0 0 0 0 0 0 0 0 0 0 0 0
0 0 0 0 0 0 0 0 0 0 0 0 0 0 0 0 0 0 0 0 0 0 0 0 0 0 0 0 0 0 0 0 0 0 0 0 0 0 0 0 0 0 0
0 0 0 0 0 0 0 0 0 0 0 0 0 0 0 0 0 0 0 0 0 0 0 0 0 0 0 0 0 0 0 0 0 0 0 0 0 0 0 0 0 0 0
0 0 0 0 0 0 0 0 0 0 0 0 0 0 0 0 0 0 0 0 0 0 0 0 0 0 0 0 0 0 0 0 0 0 0 0 0 0 0 0 0 0 0
0 0 0 0 0 0 0 0 0 0 0 0 0 0 0 0 0 0 0 0 0 0 0 0 0 0 0 0 0 0 0 0 0 0 0 0 0 0 0 0 0 0 0
0 0 0 0 0 0 0 0 0 0 0 0 0 0 0 0 0 0 0 0 0 0 0 0 0 0 0 0 0 0 0 0 0 0 0 0 0 0 0 0 0 0 0
0 0 0 0 0 0 0 0 0 0 0 0 0 0 0 0 0 0 0 0 0 0 0 0 0 0 0 0 0 0 0 0 0 0 0 0 0 0 0 0 0 0 0
0 0 0 0 0 0 0 0 0 0 0 0 0 0 0 0 0 0 0 0 0 0 0 0 0 0 0 0 0 0 0 0 0 0 0 0 0 0 0 0 0 0 0
0 0 0 0 0 0 0 0 0 0 0 0 0 0 0 0 0 0 0 0 0 0 0 0 0 0 0 0 0 0 0 0 0 0 0 0 0 0 0 0 0 0 0
0 0 0 0 0 0 0 0 0 0 0 0 0 0 0 0 0 0 0 0 0 0 0 0 0 0 0 0 0 0 0 0 0 0 0 0 0 0 0 0 0 0 0
0 0 0 0 0 0 0 0 0 0 0 0 0 0 0 0 0 0 0 0 0 0 0 0 0 0 0 0 0 0 0 0 0 0 0 0 0 0 0 0 0 0 0
0 0 0 0 0 0 0 0 0 0 0 0 0 0 0 0 0 0 0 0 0 0 0 0 0 0 0 0 0 0 0 0 0 0 0 0 0 0 0 0 0 0 0
0 0 0 0 0 0 0 0 0 0 0 0 0 0 0 0 0 0 0 0 0 0 0 0 0 0 0 0 0 0 0 0 0 0 0 0 0 0 0 0 0 0 0
0 0 0 0 0 0 0 0 0 0 0 0 0 0 0 0 0 0 0 0 0 0 0 0 0 0 0 0 0 0 0 0 0 0 0 0 0 0 0 0 0 0 0
0 0 0 0 0 0 0 0 0 0 0 0 0 0 0 0 0 0 0 0 0 0 0 0 0 0 0 0 0 0 0 0 0 0 0 0 0 0 0 0 0 0 0
Wind_Speed
3 2 2 2 2 2 3 3 4 4 4 4 4 5 4 4 4 3 3 8 9 9 9 9 9 9 9 8 8 8 8 7 7 6 6 6 6 6 5 5 5 5 5
3 2 2 2 2 2 2 3 4 4 4 4 4 4 4 3 4 4 3 5 8 8 8 8 9 9 8 8 7 7 6 7 6 6 6 6 6 6 5 5 5 5 5
3 3 3 2 2 2 3 3 4 4 4 4 4 3 3 3 3 3 3 3 3 6 7 8 8 8 7 7 7 6 6 5 6 6 6 6 5 6 5 5 5 5 5
4 3 3 2 2 2 3 3 3 4 3 3 3 2 2 2 3 3 3 3 2 3 5 7 7 7 7 6 6 6 5 5 5 5 6 6 5 5 6 6 5 5 5
4 4 3 2 3 3 3 3 3 3 3 3 2 2 2 2 2 2 2 2 2 2 2 4 6 7 6 6 6 6 5 5 5 5 6 6 6 6 6 6 6 6 5
4 4 3 3 3 3 3 3 3 3 2 2 3 3 2 2 1 1 1 1 1 2 2 3 3 4 6 6 6 5 5 5 4 5 5 6 5 5 5 5 5 5 5
4 4 3 3 3 3 3 4 4 4 2 2 3 3 3 3 2 1 1 1 1 1 2 2 2 2 2 5 5 4 4 4 4 4 5 5 5 4 4 5 5 5 5
4 4 4 3 3 3 3 4 4 3 1 1 2 2 2 3 3 2 1 1 1 1 1 1 1 1 2 2 3 5 4 4 3 4 5 5 4 4 4 4 4 4 5
3 4 4 4 3 3 3 3 4 4 2 0 1 3 3 2 1 2 2 2 1 1 1 1 1 1 1 1 1 3 4 4 4 4 4 4 3 3 4 4 4 3 4
3 4 4 4 4 3 3 3 3 3 4 2 0 0 2 3 2 1 2 2 2 1 1 1 1 0 0 0 1 2 3 4 3 3 3 3 3 3 3 3 3 3 4
2 3 4 4 4 3 4 3 3 3 2 3 2 1 1 1 2 2 1 2 2 1 1 0 0 0 0 0 0 1 2 3 3 2 2 2 2 2 2 2 3 3 3
1 3 3 4 4 3 4 3 3 3 3 2 2 2 2 2 2 2 2 1 1 2 1 1 1 1 1 0 1 1 2 2 2 2 2 2 1 1 1 1 2 2 2
2 3 4 4 3 4 4 3 3 3 3 3 2 2 2 2 2 3 3 1 1 1 1 1 1 1 1 1 1 2 2 3 2 2 1 1 1 1 0 1 1 1 2
4 4 4 5 5 4 4 4 3 3 3 3 3 2 2 1 2 3 3 3 1 1 1 2 1 2 1 1 2 2 1 3 3 2 1 1 1 0 0 0 0 1 0
3 4 5 5 4 4 4 4 3 3 3 3 3 3 2 1 1 2 3 4 4 2 2 3 2 2 2 2 3 2 2 3 3 2 2 2 1 1 0 0 0 0 0
2 3 4 4 4 3 4 3 3 3 3 3 3 3 2 2 1 1 2 2 3 4 2 2 3 2 2 2 3 2 3 4 4 4 3 3 2 2 1 1 1 1 0
3 3 4 4 3 3 3 3 3 4 4 3 3 3 3 2 2 2 2 2 2 3 2 2 2 1 2 2 1 1 2 2 2 4 4 4 3 3 3 3 2 2 2
3 3 3 3 4 4 3 4 4 4 4 4 4 4 3 2 2 2 2 2 2 3 3 3 2 1 2 2 2 2 2 2 2 4 5 5 4 3 3 3 3 2 2
3 3 3 4 4 4 4 4 4 4 4 4 4 4 4 3 3 2 3 3 2 2 2 3 2 1 1 1 1 1 1 1 2 3 4 4 4 4 4 4 3 3 2
4 4 4 4 4 4 4 4 4 3 3 4 4 4 4 4 5 4 3 3 2 2 2 2 2 1 1 1 1 1 1 1 1 1 1 2 3 3 4 4 4 3 3
4 4 4 4 4 4 4 4 4 4 4 3 3 4 4 5 6 4 3 4 4 3 2 2 2 1 1 1 2 2 2 1 1 1 1 1 1 1 2 3 4 4 3
3 3 4 4 4 4 5 6 5 4 4 4 4 3 3 4 5 5 5 5 6 5 4 3 2 3 3 3 2 2 2 1 2 1 1 2 1 1 2 2 3 4 4
3 3 4 4 4 5 6 6 7 4 4 4 4 4 3 3 3 2 3 2 3 5 7 6 5 5 4 4 3 2 3 3 3 2 2 2 1 2 2 2 4 5 5
3 3 3 4 4 4 6 6 6 5 4 4 5 5 5 4 4 4 3 2 2 2 4 4 5 5 5 4 5 5 4 2 1 1 2 2 1 2 2 2 4 5 4
2 3 3 4 4 4 5 6 5 3 3 4 4 4 5 5 7 6 4 3 2 2 2 4 5 5 5 6 4 2 2 2 2 2 1 2 1 1 1 2 3 4 4
3 3 3 3 4 4 5 5 5 3 3 3 3 3 6 6 7 7 5 5 4 3 2 1 1 3 3 4 5 5 5 3 2 2 2 3 2 1 1 2 1 1 2
Wind_Direction
106 94 88 78 78 80 88 93 93 90 86 84 83 82 75 71 67 53 50 69 74 79 84 85 82 80 79 77 76 74 74 77 79 78 81 84 82 84 87 87 89 88 88
117 108 91 80 78 86 91 99 102 96 89 88 84 83 81 79 74 65 52 55 65 72 79 85 82 79 76 76 76 73 75 76 76 78 80 78 79 80 81 84 87 85 83
117 112 104 96 93 99 96 91 90 88 89 85 77 74 76 76 77 70 60 47 46 62 72 79 83 83 78 73 73 71 74 81 80 84 85 82 83 80 79 81 83 84 81
113 110 110 108 108 101 100 103 97 90 83 77 70 59 60 67 70 74 69 61 47 46 56 69 74 77 79 75 72 70 74 82 86 85 83 84 85 85 80 79 76 82 82
120 116 116 113 105 98 101 115 100 104 102 88 81 64 48 57 58 77 78 70 67 63 49 58 64 65 69 72 71 68 73 80 87 88 85 82 84 85 84 83 77 76 79
123 117 118 112 106 100 95 103 108 95 106 109 85 59 34 31 44 61 79 70 72 80 69 59 50 48 54 58 62 64 68 74 84 92 88 86 87 87 85 86 84 82 83
128 122 121 114 112 116 122 119 113 102 86 92 78 41 14 18 31 31 38 71 76 85 85 76 62 47 38 46 52 63 67 75 85 94 93 89 89 89 89 88 87 87 81
140 136 131 129 125 119 115 119 118 112 110 105 112 93 28 359 357 11 17 62 66 59 74 102 83 71 46 26 30 52 60 66 76 89 94 92 92 90 94 91 87 88 84
152 142 141 136 135 131 139 146 144 136 152 203 132 138 143 200 308 338 357 19 34 49 43 70 90 89 77 45 18 34 50 57 71 81 85 85 89 100 109 108 98 88 85
160 154 151 148 146 144 150 162 154 148 148 167 235 175 162 157 153 320 334 349 14 32 24 60 79 98 120 85 55 61 65 58 62 73 74 76 77 95 111 110 105 91 80
176 166 160 155 156 158 164 164 155 153 156 166 176 161 116 100 123 144 236 314 349 338 333 269 181 192 179 171 222 102 93 86 69 66 62 53 58 85 99 98 105 94 82
207 192 170 168 170 169 174 177 170 164 168 165 173 162 157 161 170 153 173 223 270 299 318 301 240 223 201 195 212 144 141 130 112 84 64 52 41 44 104 100 107 101 89
209 211 186 181 180 184 184 176 167 174 173 169 180 183 181 188 166 151 145 166 215 284 313 309 263 240 213 196 236 201 169 159 152 135 100 68 63 35 86 107 104 107 110
209 205 193 193 191 185 184 179 174 186 177 181 188 181 176 199 176 166 159 149 133 315 304 274 288 245 232 217 230 210 203 182 171 163 159 145 118 78 1 189 149 98 129
207 199 194 194 196 190 185 175 181 190 180 189 195 189 186 204 183 177 162 157 154 183 252 253 256 254 237 224 218 201 204 201 192 192 190 194 185 185 242 264 175 80 44
198 181 186 186 189 189 187 181 185 192 181 195 193 187 197 202 187 170 168 169 160 163 209 240 236 242 236 226 218 206 210 209 214 211 205 201 201 208 215 211 210 207 225
183 183 185 180 180 184 187 184 199 194 193 205 203 194 206 197 189 186 173 170 169 155 185 259 258 249 221 223 226 217 218 216 229 221 213 212 216 218 220 217 219 221 220
184 187 179 180 190 190 190 189 200 203 201 206 211 198 212 204 195 193 182 188 187 177 172 213 253 238 229 219 205 210 224 220 226 230 219 218 219 219 222 223 218 215 218
185 190 179 186 194 196 196 203 202 204 205 207 207 202 208 194 205 205 194 196 199 191 167 177 220 232 243 222 193 237 233 254 245 239 229 228 230 227 226 226 224 222 216
191 196 194 200 202 203 202 201 196 201 209 215 213 208 206 200 207 206 203 199 185 170 161 168 197 223 235 238 156 203 257 260 259 264 255 236 235 236 234 230 229 224 218
207 204 198 203 201 202 205 198 195 200 207 214 220 216 211 209 209 205 199 188 175 175 171 177 196 201 218 199 209 203 213 254 279 250 256 268 254 254 246 240 231 220 214
216 209 205 203 203 214 215 204 198 199 200 200 210 218 217 215 214 212 212 197 182 181 185 182 199 204 224 215 208 191 177 166 263 254 178 255 185 238 249 236 232 221 223
210 214 214 207 211 221 214 207 206 197 198 204 204 200 210 204 196 187 205 208 210 208 193 185 195 213 214 210 191 197 197 198 218 221 159 243 239 245 248 245 231 227 228
203 212 216 213 214 227 219 214 210 201 199 207 204 197 196 200 196 184 182 186 216 227 215 203 201 215 217 209 199 203 202 203 246 258 161 209 246 248 267 257 242 227 229
207 212 211 210 213 232 226 215 208 193 199 215 214 204 195 196 203 193 176 184 213 253 242 216 215 222 224 221 204 164 163 167 245 264 193 178 221 253 281 272 261 237 233
210 211 218 215 211 221 224 215 204 181 192 214 220 216 211 202 200 194 184 184 204 236 233 243 243 244 235 227 213 199 187 185 199 240 215 173 195 173 285 281 265 249 240